Wind_Speed
27 28 29 32 35 38 40 41 40 38 31 19 12 7 5 4 2 5 18 14 4 10 7 3 5 4 0 1 1 2 2 2 0 0 1 0 0 2 1 0 1 1 1 1 1 1 1 1 1 1 2 2 2 1 1 1 1 1 1 1 1 0 2 1 5 5 3 4 3 2 3 2 1 2 1 3 3 3 5 5 3 0 3 1 2 3 8
28 28 29 30 33 36 39 40 39 39 33 22 13 4 4 3 3 3 18 14 2 5 4 2 3 1 0 2 2 2 1 2 1 1 0 0 1 1 0 1 0 0 1 2 1 1 0 1 1 0 2 1 2 2 2 2 0 1 1 1 1 1 0 1 3 6 7 6 6 5 5 2 2 3 2 3 4 6 4 2 3 1 4 4 4 4 8
28 28 29 30 31 34 37 38 38 38 32 22 13 4 3 4 1 3 14 19 11 5 3 6 5 2 2 4 2 1 2 0 2 2 1 1 2 2 0 0 1 1 1 2 1 1 1 1 1 2 1 2 2 3 3 2 1 1 2 1 0 1 1 1 2 2 3 5 5 5 4 3 2 1 1 2 4 7 4 2 3 1 4 5 5 6 10
27 28 29 29 30 32 35 36 36 37 32 20 13 8 3 3 3 3 8 13 11 4 1 5 6 4 4 4 1 2 2 2 1 2 0 1 1 1 0 0 1 2 2 2 2 1 1 1 1 0 2 3 1 1 1 1 2 2 1 2 1 2 1 2 5 5 5 6 8 5 2 4 6 5 3 3 4 6 5 4 3 5 2 2 7 9 11
27 27 28 28 29 30 32 34 34 35 32 20 12 10 6 3 2 2 3 5 5 5 5 5 4 3 4 3 0 2 2 2 1 1 1 0 1 0 0 1 1 0 1 2 1 2 1 1 0 1 3 2 2 1 1 2 1 1 0 2 2 3 3 3 5 7 8 8 11 8 3 6 10 8 5 5 5 5 6 6 6 3 2 5 9 5 6
27 27 27 28 28 29 31 32 31 32 32 24 13 7 6 4 2 1 1 1 2 3 4 4 5 4 4 3 1 2 2 0 1 1 1 1 0 0 0 1 2 4 3 2 0 2 2 1 2 1 2 2 2 2 0 1 3 2 2 3 2 5 3 4 3 7 10 10 12 10 5 7 9 8 7 6 6 9 11 11 8 5 3 11 11 6 9
26 26 27 27 27 28 29 29 30 28 28 31 24 10 3 4 3 1 2 2 3 1 1 3 5 5 4 3 1 3 4 3 3 2 1 2 2 1 0 4 4 5 4 4 1 2 1 2 3 1 1 2 1 2 1 0 2 2 2 2 1 4 3 4 2 7 10 9 10 8 5 5 7 8 9 9 9 12 13 12 8 7 11 16 16 16 18
26 26 27 27 26 27 27 28 29 26 25 30 26 11 3 3 2 1 4 4 1 1 1 3 4 4 3 2 1 3 6 5 3 2 3 1 2 1 2 5 4 4 5 5 3 5 5 3 4 3 1 2 2 2 2 1 1 2 1 1 1 1 3 3 2 5 10 8 6 4 4 5 9 11 8 8 8 9 10 9 5 6 11 15 13 13 16
27 26 27 27 26 27 27 27 28 26 25 23 17 8 4 4 4 2 4 3 3 2 2 3 4 3 3 1 1 2 4 6 3 1 2 2 3 4 5 4 3 2 2 3 6 6 6 6 6 6 4 3 3 3 2 4 3 0 1 0 0 1 2 2 5 4 8 6 6 9 8 4 7 12 10 6 6 6 6 5 6 7 8 9 7 7 11
29 28 27 27 27 26 26 27 27 27 26 21 12 5 5 4 2 2 5 3 3 3 3 4 3 1 2 0 1 1 3 3 1 1 0 2 1 4 5 5 3 1 2 5 6 5 5 6 5 4 4 3 2 1 2 5 5 4 3 1 0 2 1 2 3 1 7 6 7 10 10 6 4 7 6 6 6 5 5 4 7 9 6 4 5 8 10
30 29 28 27 27 26 25 25 26 26 26 22 13 6 6 5 2 2 6 4 3 2 3 4 2 1 1 1 1 1 1 3 2 1 1 1 1 1 3 4 2 2 4 4 3 3 4 4 4 3 1 1 1 3 4 4 3 3 5 2 1 2 3 1 1 1 6 9 8 7 6 4 4 5 6 6 6 7 7 7 9 9 7 5 8 10 12
30 30 29 28 27 26 25 24 24 23 23 21 15 10 8 6 2 3 6 4 2 4 4 2 1 0 2 3 2 1 1 1 1 0 1 1 1 2 2 3 2 2 2 4 5 3 3 4 3 1 2 4 4 4 5 3 2 1 3 4 3 3 3 1 1 2 4 6 7 7 3 4 8 7 4 5 5 7 8 10 11 10 10 10 12 14 14
31 30 30 29 29 27 26 24 22 21 20 18 17 15 11 7 3 3 6 5 1 3 2 0 2 1 2 2 1 0 2 2 2 1 2 1 1 1 2 1 3 1 4 5 4 1 1 3 1 1 1 3 4 4 4 2 2 4 3 3 5 5 3 1 1 2 2 4 4 2 6 10 11 8 3 3 1 2 1 8 11 10 10 10 11 13 13
32 31 30 30 29 28 27 25 22 20 18 17 17 17 14 10 5 2 4 5 0 3 2 2 3 2 2 2 2 1 2 3 3 2 0 1 2 2 2 2 2 4 6 5 3 2 1 2 4 3 3 4 3 2 2 2 2 3 3 2 2 5 4 1 1 1 1 1 2 3 6 10 9 4 1 2 1 2 2 3 9 8 7 8 8 10 11
31 31 31 30 30 29 29 27 24 21 18 16 15 16 16 13 8 2 2 5 2 1 1 1 2 3 4 3 3 3 2 3 2 2 1 1 1 2 4 3 4 6 5 2 2 2 2 1 3 3 4 3 2 2 1 0 1 2 3 3 3 4 3 2 1 2 1 2 4 4 5 6 6 6 5 2 2 5 6 1 7 9 7 8 8 8 10
28 29 30 31 30 30 29 29 27 24 20 16 13 14 17 16 11 5 1 4 5 1 3 5 6 6 5 3 3 3 2 2 1 1 4 4 2 3 4 3 4 4 2 2 2 3 3 1 1 1 2 2 2 3 2 1 2 2 3 4 5 4 2 4 3 2 1 3 1 2 2 6 8 8 7 4 3 6 6 2 7 8 6 7 8 8 9
25 27 28 29 30 30 30 29 29 27 24 20 14 13 17 19 15 9 4 3 4 2 4 5 7 5 4 2 2 3 3 2 2 0 2 2 2 2 3 3 2 2 1 1 2 3 3 1 1 1 4 3 2 2 3 0 1 3 2 4 5 4 2 3 2 3 2 3 2 4 4 8 10 8 6 5 4 7 6 6 8 7 7 7 7 7 9
22 23 25 27 28 28 29 29 29 28 27 24 17 12 15 19 18 12 5 2 3 3 5 8 7 3 3 4 4 4 3 3 2 1 1 1 1 2 2 1 1 2 2 1 2 2 2 1 2 2 4 3 1 1 2 1 2 4 2 2 2 1 1 2 3 4 4 4 3 4 5 8 9 6 5 6 3 5 2 6 7 5 6 7 7 8 9
18 20 22 24 25 27 27 28 29 28 28 27 21 12 12 17 18 14 8 1 3 1 5 8 7 4 4 4 2 1 1 2 3 3 1 2 2 3 3 1 1 1 0 1 1 2 2 2 2 3 2 4 1 2 3 3 3 3 2 1 2 1 1 1 3 3 3 4 3 4 6 6 4 3 3 4 1 1 5 7 5 5 6 8 7 8 8
14 16 18 20 22 24 26 26 28 28 27 28 25 16 12 16 17 15 10 3 0 2 4 7 7 7 7 5 3 3 2 1 2 4 4 4 3 4 3 2 2 1 1 1 0 1 2 3 3 1 2 4 2 2 2 4 4 4 4 3 3 4 3 2 3 4 2 1 1 2 7 6 6 6 1 2 4 5 7 6 6 7 8 8 7 7 7
13 13 15 17 18 20 23 24 26 27 26 28 27 20 14 15 16 14 11 4 0 2 3 6 8 8 8 8 7 6 5 4 4 5 4 3 4 4 2 3 4 3 2 3 2 1 2 3 2 1 2 2 1 1 2 3 6 5 4 3 2 4 4 3 4 3 3 2 3 4 5 6 7 5 4 7 8 7 6 6 9 10 8 6 6 7 7
12 13 13 15 16 18 20 21 23 25 25 27 27 24 19 18 16 14 12 7 4 4 5 5 7 10 11 12 11 8 6 5 6 5 4 3 2 3 3 3 4 4 3 3 3 1 2 2 2 1 2 2 2 2 3 2 5 5 1 1 3 6 6 4 5 5 4 5 8 10 7 5 6 7 9 12 11 9 7 8 10 10 8 6 6 8 8
13 13 13 14 15 16 17 19 20 21 23 25 26 26 25 22 19 17 12 7 5 7 7 5 6 8 11 14 14 13 11 9 8 8 7 5 1 2 3 3 3 2 1 3 4 3 3 3 2 2 2 3 3 2 2 3 4 4 2 2 6 6 5 4 3 4 4 6 10 13 13 12 10 10 11 12 11 10 9 8 9 10 10 8 6 8 9
14 14 13 13 14 15 16 18 18 19 21 23 25 26 24 21 21 21 13 4 2 5 5 3 3 5 6 8 11 14 14 13 13 13 11 9 5 2 3 4 3 1 2 3 3 3 2 2 2 1 2 3 3 2 4 5 5 4 2 3 6 4 2 3 3 3 4 6 9 10 11 12 12 12 11 10 10 10 9 8 9 10 10 9 8 9 9
13 15 15 13 13 14 15 17 18 19 20 21 23 25 23 20 21 19 11 3 1 2 3 4 4 4 4 5 7 10 12 13 13 12 13 14 10 4 3 5 6 4 4 4 4 4 2 1 2 2 4 4 3 3 4 4 4 3 3 4 5 2 1 2 4 5 5 8 13 14 12 10 12 13 12 10 11 12 10 10 10 10 9 9 8 8 6
12 14 15 15 14 14 15 16 17 18 19 20 22 24 21 18 18 15 10 5 2 1 1 4 5 4 4 5 6 7 9 12 14 13 12 14 12 7 4 6 5 3 4 4 4 4 3 2 2 3 4 3 3 4 4 4 3 1 3 6 3 3 2 3 3 5 7 9 14 15 11 10 13 14 11 9 10 11 11 11 9 8 9 9 8 8 7
11 12 15 16 16 15 15 15 15 17 17 17 20 21 16 13 17 19 18 12 4 1 2 4 4 5 7 8 10 10 10 11 13 13 12 12 11 9 7 6 4 3 4 3 1 2 3 1 3 4 4 3 2 3 3 3 1 1 5 6 3 3 5 4 2 4 8 9 12 11 6 8 13 12 9 10 10 9 9 11 10 9 9 9 8 9 9
9 11 14 16 17 17 17 16 15 16 15 15 17 17 9 9 14 18 21 18 8 2 3 4 7 10 11 9 10 12 11 11 11 12 12 10 9 9 10 8 5 3 4 2 1 2 3 3 4 3 3 2 2 2 2 0 1 2 7 7 5 6 7 6 6 7 11 13 15 10 4 8 15 13 9 9 7 6 9 12 12 11 11 9 8 9 10
11 11 12 14 15 17 17 16 16 15 14 14 15 11 4 4 6 9 17 21 12 2 2 3 6 8 6 5 6 7 9 11 10 10 9 8 8 10 11 9 6 3 3 3 2 2 3 4 4 3 3 3 2 2 2 1 2 5 10 11 9 8 9 10 11 12 12 16 17 10 6 12 16 13 10 9 7 7 11 13 13 11 10 9 8 9 10
13 13 12 12 13 15 16 17 16 14 13 13 11 7 3 1 1 6 16 21 13 3 2 1 3 5 5 3 3 3 5 7 7 7 7 6 7 9 9 7 6 4 2 1 2 3 3 3 3 3 2 2 3 1 2 3 3 6 12 15 12 9 10 13 13 12 13 16 14 8 8 12 12 10 11 12 11 11 11 11 12 12 12 11 9 8 10
13 13 13 13 13 14 15 16 16 14 13 11 6 3 2 1 4 9 17 18 12 3 2 1 3 4 5 2 1 2 0 2 3 3 4 4 4 5 5 5 4 4 3 1 1 2 3 3 2 2 2 1 2 2 3 3 2 7 14 16 11 9 11 12 11 11 14 15 11 9 11 13 9 9 12 14 13 11 9 9 12 13 13 13 12 11 13
14 13 13 13 13 13 14 15 14 13 12 9 5 3 5 7 11 14 14 13 8 2 3 1 2 3 3 2 1 2 2 1 1 2 1 2 1 2 3 3 3 3 3 2 1 2 3 3 2 2 2 2 2 2 3 4 5 13 20 19 11 8 10 9 8 8 10 9 6 9 16 15 9 8 11 13 13 9 8 10 14 15 14 13 12 14 15
15 14 13 13 13 13 13 13 13 12 12 10 9 9 10 10 11 11 10 9 5 1 4 2 1 3 3 2 2 3 4 1 2 3 1 1 0 1 1 1 2 3 3 3 2 3 2 2 2 2 3 2 2 1 3 7 13 19 22 19 15 11 8 6 6 8 10 8 5 7 13 17 14 12 12 14 15 14 11 12 14 14 12 10 10 12 13
15 14 14 13 12 12 13 13 13 12 11 9 8 8 8 8 8 9 9 7 2 1 1 1 1 3 3 3 3 1 3 1 2 1 1 2 1 1 1 1 1 1 3 3 2 2 2 0 2 2 3 1 1 1 5 11 18 20 19 18 18 15 10 7 8 10 11 8 6 9 13 16 17 17 15 14 15 15 13 10 10 10 9 9 9 10 9
14 14 13 13 12 13 14 14 12 10 8 6 6 8 10 11 12 11 9 5 0 1 1 1 2 2 3 4 4 2 2 2 1 1 1 1 1 1 1 0 1 2 3 3 1 2 2 2 3 2 2 1 2 5 9 13 18 17 14 15 17 13 9 10 11 10 7 6 6 8 10 11 12 13 14 13 12 12 10 8 7 7 8 9 11 9 7
12 12 12 12 12 13 13 10 7 6 6 7 10 13 15 16 15 12 8 4 4 4 1 0 1 2 1 3 4 2 2 1 1 1 0 1 1 0 2 2 2 3 1 1 1 3 3 2 2 2 2 2 6 10 11 14 17 16 13 12 13 11 10 11 11 11 11 10 9 9 9 9 9 10 11 12 11 9 9 9 7 6 8 11 12 9 7
11 11 11 11 12 10 6 3 4 7 10 14 17 17 16 13 9 6 4 3 6 6 3 0 2 2 1 2 4 0 2 1 1 0 0 1 1 1 1 1 3 2 1 1 4 4 2 1 2 3 4 7 11 13 11 12 14 13 10 10 13 13 10 6 5 9 14 15 14 12 10 9 9 8 8 10 11 9 9 10 8 7 9 11 11 10 10
9 9 9 9 7 4 1 3 9 15 18 18 16 12 8 4 1 1 0 1 2 3 2 1 2 3 2 3 3 3 3 1 1 0 2 2 0 0 0 1 2 2 1 3 4 3 2 0 3 3 6 12 16 15 11 9 10 9 9 13 15 13 8 6 5 7 11 13 14 13 11 12 13 12 11 11 12 11 10 10 9 8 9 10 12 13 13
8 8 7 6 3 1 3 8 15 19 19 15 9 4 2 0 1 1 1 1 1 1 1 1 3 4 4 4 5 3 3 1 1 2 2 2 1 1 1 1 1 0 1 4 4 2 1 3 3 2 6 14 15 10 5 6 9 11 12 12 11 10 8 7 6 6 7 8 11 11 9 9 11 11 11 11 11 12 11 10 10 10 10 12 15 15 13
8 7 5 3 3 6 10 15 18 17 12 7 3 1 0 0 0 1 0 1 0 2 2 3 3 3 3 3 4 3 1 1 2 2 2 2 2 1 1 2 2 1 1 5 3 2 1 3 2 3 9 12 9 2 3 6 10 11 8 6 9 11 10 9 9 7 6 8 11 12 10 10 9 8 9 10 9 11 12 11 12 15 15 15 17 16 15
7 6 4 5 9 14 18 18 15 9 4 1 1 1 1 1 2 1 1 1 2 3 2 2 1 3 2 1 1 2 2 1 1 2 1 2 1 1 1 3 1 0 3 5 2 2 0 2 3 6 10 8 3 1 4 6 8 6 5 6 8 10 10 10 11 11 8 6 9 11 12 12 10 9 11 11 9 9 11 12 16 19 19 18 19 21 21
5 5 7 10 13 14 13 9 5 2 1 1 1 1 1 1 1 1 0 1 2 2 1 1 1 2 2 1 2 3 2 0 1 1 1 2 1 1 1 2 1 1 4 4 1 2 0 2 5 8 5 3 4 1 3 4 4 3 5 7 8 9 10 9 10 12 10 7 8 11 12 12 12 12 14 15 15 15 14 15 18 21 22 21 23 25 25
6 6 8 8 7 5 4 2 0 1 1 0 1 2 2 2 1 1 2 2 1 0 1 1 0 1 1 1 2 2 1 0 1 1 1 2 1 1 1 2 1 2 3 1 1 0 2 5 7 7 2 4 3 5 3 3 3 3 4 6 8 11 11 9 9 10 11 10 11 13 13 13 14 14 14 14 15 17 19 21 21 21 23 23 23 24 25
6 5 5 4 2 1 2 1 1 2 1 2 2 2 2 2 2 1 1 2 1 1 2 1 1 2 2 1 1 1 1 1 0 0 1 1 0 1 0 2 3 2 1 1 1 3 4 5 5 4 4 2 5 7 5 4 5 5 4 7 11 11 11 10 9 9 11 12 14 16 17 18 21 22 22 20 18 17 22 27 26 24 23 23 23 25 27
4 3 3 2 2 1 1 1 0 0 1 3 3 2 2 2 3 3 3 2 0 2 2 1 1 0 3 2 0 0 1 0 0 1 1 0 1 1 2 2 1 0 1 2 3 5 7 6 2 5 5 5 6 6 5 5 5 4 4 7 9 9 9 9 9 9 10 14 17 20 21 22 24 26 29 32 30 24 22 26 28 26 24 23 24 28 28
2 1 1 0 2 1 1 1 2 1 2 2 3 3 3 4 4 4 3 1 1 1 2 1 1 0 2 2 1 0 0 1 0 1 0 2 0 3 1 0 0 1 2 4 6 8 9 6 3 4 5 7 6 5 5 5 4 4 4 5 6 7 8 9 9 10 13 16 19 21 21 21 22 23 27 33 36 32 28 28 28 27 24 23 25 29 30
1 1 1 1 2 2 2 3 3 3 2 2 3 4 4 4 4 4 2 1 1 2 2 1 1 1 2 1 1 1 1 1 1 2 0 2 1 3 1 1 2 3 3 7 11 9 4 2 3 3 4 5 5 5 6 6 5 5 6 6 6 7 8 8 9 12 16 18 19 19 18 20 23 25 27 30 34 37 35 33 30 27 25 26 30 33 32
0 1 1 2 2 3 3 2 1 2 3 3 3 4 3 2 3 4 4 2 2 3 3 3 3 3 3 1 1 2 2 0 0 2 1 1 1 2 1 2 4 3 5 10 12 6 1 2 5 5 4 4 4 4 5 6 6 7 7 7 7 8 9 9 10 14 16 16 15 15 17 20 24 26 27 27 30 37 40 37 33 30 29 29 32 34 33
3 2 2 2 2 3 3 1 3 4 4 4 4 5 4 3 4 6 6 4 3 3 3 2 2 2 3 2 1 1 2 1 1 1 1 1 2 3 3 3 6 8 8 8 6 4 3 5 4 4 5 5 5 5 6 7 7 7 8 9 11 12 12 13 15 18 19 17 16 18 21 23 24 26 26 25 27 33 39 40 38 37 36 34 32 34 35
4 3 2 3 4 3 1 1 5 7 5 2 2 3 3 4 5 6 4 3 2 2 2 1 1 2 2 2 1 1 3 2 2 2 3 4 4 4 4 7 11 13 9 3 2 3 5 3 4 6 7 7 7 7 7 7 8 9 11 14 16 18 19 21 23 24 24 23 23 22 23 25 25 25 26 28 30 33 38 41 41 41 40 38 34 32 34
4 4 3 5 7 5 2 3 7 8 5 3 3 3 2 3 4 5 4 2 2 2 3 2 1 1 2 2 1 2 2 1 1 3 6 6 4 4 8 13 15 11 6 2 2 4 5 4 4 6 7 8 7 7 8 10 13 16 18 20 21 23 25 27 27 27 27 28 28 27 26 28 30 30 31 34 35 32 29 33 39 41 40 38 35 32 31
4 3 1 3 5 5 5 7 8 7 6 6 5 4 4 5 8 11 11 7 4 4 4 3 2 3 4 3 2 2 2 2 3 5 7 7 6 8 12 14 11 6 5 5 5 5 5 5 5 6 7 9 10 11 13 15 18 22 26 28 27 26 27 28 28 28 29 29 30 31 31 32 33 33 32 31 28 22 18 23 35 41 39 38 38 37 34
Wind_Direction
24 25 25 23 21 20 19 18 16 15 18 20 21 34 60 65 136 351 356 350 21 68 60 351 26 64 204 340 43 32 80 116 148 358 27 30 256 14 28 106 58 113 195 125 122 143 164 181 189 219 228 231 229 213 42 339 304 128 149 267 278 170 89 15 290 289 303 311 314 5 36 64 152 247 190 155 158 139 145 171 182 282 276 240 119 249 269
23 24 25 24 23 21 20 20 17 15 16 16 20 56 111 88 189 356 12 11 57 87 92 121 61 56 248 49 24 354 55 110 120 124 7 351 132 81 62 221 85 159 143 100 142 212 54 201 224 224 211 235 343 358 357 345 254 185 196 192 304 300 96 48 338 336 343 348 349 346 352 15 214 242 209 158 121 103 112 125 91 341 241 178 152 243 266
23 23 24 24 24 23 23 22 19 16 15 16 28 75 139 61 98 301 16 35 62 90 143 139 125 153 114 74 45 24 33 34 160 154 187 193 164 145 248 210 119 104 70 59 35 15 41 246 316 22 256 257 347 346 318 307 208 256 306 306 306 251 205 129 85 30 334 319 316 312 307 294 254 193 156 153 127 128 143 112 92 240 236 164 171 245 277
24 23 24 24 24 24 25 24 22 19 15 20 42 59 94 72 44 315 351 27 53 64 72 98 108 150 130 81 27 84 65 293 234 133 121 238 170 143 345 153 86 50 54 42 345 314 18 18 16 351 253 273 315 262 280 30 146 180 307 330 54 89 259 213 170 183 210 237 252 259 302 300 283 272 237 202 174 148 129 115 166 203 214 220 230 242 275
26 25 24 25 24 24 26 26 26 23 20 25 49 47 43 89 64 360 325 354 31 40 21 49 84 145 134 106 56 122 98 320 344 97 235 229 108 54 62 131 141 133 92 58 309 269 353 37 8 231 235 266 308 244 173 66 50 165 236 320 73 89 305 261 194 221 234 240 259 272 298 273 262 265 249 202 185 158 151 190 212 174 47 280 250 223 273
27 25 25 26 25 25 26 27 29 29 26 33 57 50 24 76 121 200 117 20 34 41 16 47 74 67 90 106 121 130 114 204 190 219 298 4 17 153 30 304 233 196 160 109 123 299 344 320 249 249 251 271 340 337 159 33 340 6 32 330 97 115 272 252 194 252 256 250 265 271 264 259 250 244 242 226 191 176 194 222 215 162 222 260 264 282 285
27 26 25 26 26 26 27 28 31 34 32 39 55 63 18 63 91 309 36 97 172 195 339 65 77 61 75 96 128 150 152 199 221 195 69 360 314 120 182 280 252 199 160 118 150 250 335 314 274 228 227 262 298 327 301 283 346 21 45 326 122 130 255 247 213 288 282 268 272 260 228 260 271 246 230 222 207 199 214 233 217 193 237 256 269 283 280
28 28 26 25 27 27 28 29 31 34 35 41 53 59 33 74 114 321 45 62 138 234 340 58 70 43 58 89 181 164 162 193 223 179 128 182 284 164 204 252 229 171 143 129 191 224 186 209 250 197 168 290 226 207 243 155 78 15 54 302 295 163 269 258 96 332 301 292 306 294 221 241 276 277 255 225 224 227 230 238 225 213 247 260 268 278 278
29 29 28 26 27 28 29 31 31 32 38 48 59 58 57 108 164 147 93 48 357 355 356 53 76 25 14 88 181 185 190 198 189 168 159 168 199 191 190 204 176 103 109 186 236 241 192 196 222 191 183 251 224 204 206 141 130 251 235 232 321 173 281 333 54 7 291 292 338 321 301 276 274 285 279 232 210 226 225 217 199 195 232 268 285 280 275
30 30 30 28 27 28 30 32 32 33 39 53 69 60 55 101 152 120 105 74 5 15 356 14 60 24 330 216 191 227 241 239 144 137 334 52 138 184 175 161 141 89 260 237 238 223 189 204 228 209 204 240 228 186 152 130 135 169 178 160 210 143 117 351 48 356 273 291 327 314 319 349 318 276 248 202 205 233 248 247 219 203 211 264 272 263 272
28 29 30 29 29 29 30 33 35 36 39 49 62 60 49 69 95 86 84 62 355 6 11 8 30 34 345 2 356 316 328 360 31 151 263 351 48 145 149 141 140 216 229 247 268 229 216 243 260 245 207 119 96 103 109 101 100 156 155 155 251 111 110 186 164 197 273 294 318 332 4 11 283 238 189 198 228 223 226 251 241 217 207 227 252 269 283
28 28 28 29 30 29 30 33 36 40 43 45 51 55 48 48 65 83 86 82 330 355 26 355 264 239 340 360 21 15 267 319 323 229 203 251 306 14 73 128 161 241 273 327 328 292 254 270 266 240 57 56 57 67 87 93 22 15 123 137 149 125 120 218 205 178 266 309 350 7 9 250 261 271 232 224 219 182 205 256 261 242 237 244 259 273 277
29 28 26 26 28 29 30 32 34 38 43 43 44 47 41 33 40 80 100 104 334 332 49 358 251 207 274 319 45 85 254 263 298 343 103 162 235 332 9 137 173 259 330 334 338 359 268 291 291 175 34 32 34 34 56 76 20 5 34 103 135 144 153 206 209 203 274 352 26 348 282 281 294 312 297 235 186 122 255 286 273 247 236 237 249 263 266
29 29 28 25 25 26 27 29 30 32 36 38 40 41 34 26 31 58 104 98 308 249 153 44 321 254 212 217 129 92 308 314 326 322 86 120 181 216 256 253 242 303 319 323 349 37 12 341 8 355 338 12 18 352 20 62 54 33 2 348 103 130 144 134 319 237 213 336 271 263 305 315 316 309 228 183 200 182 159 285 276 255 228 221 238 260 267
28 29 29 27 25 24 23 24 26 27 31 34 35 37 32 26 27 24 121 109 103 264 191 190 232 180 167 184 148 104 343 317 299 284 318 47 110 238 256 264 287 306 316 339 55 46 45 41 21 348 332 352 344 301 279 86 16 27 356 344 61 109 145 148 196 269 88 57 307 321 348 320 281 252 251 243 183 168 143 144 287 277 243 216 219 246 265
25 27 28 27 27 26 23 22 21 20 23 27 30 34 29 22 21 12 346 115 100 20 247 195 169 143 139 178 178 158 197 225 209 303 328 333 317 279 266 262 279 298 331 58 81 72 69 107 165 189 248 224 226 276 281 280 320 349 7 22 57 71 71 101 113 300 20 93 255 265 263 267 258 249 256 248 166 135 105 21 292 271 244 212 205 237 263
22 24 24 25 26 26 25 23 20 17 16 16 22 33 30 21 17 8 355 96 90 320 242 166 122 105 113 141 204 203 190 167 144 54 315 288 284 302 298 288 271 242 185 63 45 70 80 134 164 195 254 229 168 271 285 311 307 300 344 40 57 58 38 81 127 245 217 151 213 244 237 254 261 255 240 222 152 104 69 338 288 254 233 218 211 245 263
18 19 21 22 22 22 24 23 21 18 15 12 14 28 29 21 16 9 360 102 91 312 240 172 140 142 169 163 184 198 169 137 137 117 345 279 232 211 223 232 204 218 208 111 81 88 108 225 197 176 250 264 132 216 259 215 260 253 197 134 93 88 148 158 168 208 201 179 227 270 260 253 261 259 205 179 126 74 41 280 262 234 234 232 223 247 260
13 15 16 19 19 18 19 20 19 19 17 14 13 17 19 15 15 15 8 54 116 306 229 184 171 202 188 133 113 166 152 131 136 128 103 296 249 168 163 174 157 189 145 89 110 128 144 253 243 147 213 283 260 184 229 225 221 212 164 170 273 210 158 157 167 193 200 184 203 278 283 253 205 148 166 170 126 298 249 244 238 232 254 256 240 242 250
6 10 12 13 16 16 15 15 16 15 15 15 14 14 9 3 7 15 13 4 153 302 244 194 191 210 194 163 149 158 146 124 150 147 161 213 200 121 87 303 246 161 88 102 191 220 176 239 266 162 193 252 232 178 246 260 251 219 188 214 233 189 174 226 209 187 171 143 130 303 288 257 157 123 113 203 193 234 253 267 275 264 265 270 257 242 238
348 357 4 6 9 12 12 12 12 11 11 12 12 12 9 360 358 360 354 341 195 319 271 209 209 219 216 219 221 199 177 182 187 172 166 194 189 145 137 232 201 169 173 165 167 241 201 199 241 229 207 238 238 201 228 282 302 277 195 179 228 197 179 219 240 202 151 157 214 228 236 217 172 164 234 229 217 240 269 285 288 281 269 262 260 255 240
333 339 349 355 358 3 7 8 9 8 8 8 7 8 7 360 354 349 336 314 257 259 270 243 234 234 230 236 240 232 220 207 194 179 154 141 191 182 159 165 184 196 193 148 144 245 229 182 195 209 220 242 246 230 209 228 293 290 199 145 244 217 190 195 232 228 191 197 231 249 259 238 195 210 245 252 252 264 267 262 274 280 269 249 251 263 257
328 328 334 340 344 350 356 360 3 6 6 5 5 7 5 357 352 350 339 312 277 274 267 250 256 258 248 242 239 236 233 227 223 216 187 151 181 234 184 169 194 215 193 152 164 179 184 186 183 172 214 224 209 234 259 242 245 244 205 232 255 235 194 179 223 260 275 254 248 256 268 271 258 246 250 258 263 269 265 258 261 266 265 257 250 257 261
333 331 330 330 331 335 341 349 354 358 2 4 4 5 4 358 354 354 353 348 334 316 292 256 240 249 250 242 234 235 237 233 230 230 215 191 182 228 240 213 189 171 252 226 179 126 131 194 166 139 239 225 186 204 256 253 238 215 191 274 288 276 189 191 237 274 296 276 261 252 252 260 268 270 268 265 261 259 259 256 254 259 264 260 249 251 258
341 337 333 328 324 324 328 335 341 348 354 360 1 1 3 4 0 1 9 22 2 334 305 293 277 252 253 249 231 230 234 233 230 230 225 215 206 202 207 190 170 168 206 203 144 108 123 212 152 170 233 231 202 206 223 233 235 200 178 249 274 278 186 226 238 231 234 258 270 270 264 260 264 269 272 273 269 266 262 255 253 260 268 264 253 246 242
343 339 334 330 327 324 323 325 330 337 345 354 358 358 3 11 14 22 34 17 310 202 221 277 279 290 294 276 257 242 233 229 228 226 225 225 224 223 192 154 142 141 136 123 117 132 153 176 168 190 219 226 211 206 210 228 234 195 225 239 213 146 187 213 216 248 264 273 277 280 286 280 266 260 258 259 260 261 263 266 268 271 272 271 267 254 234
341 338 335 333 332 330 327 322 321 326 334 348 355 352 1 33 45 45 43 32 7 287 304 286 282 322 324 290 267 259 244 230 225 222 223 225 225 227 209 167 135 104 96 83 56 119 130 158 201 203 215 223 210 204 218 236 221 216 256 250 165 155 220 205 160 273 274 270 269 273 289 290 276 268 257 250 250 251 264 279 288 282 271 270 275 274 265
341 338 337 338 338 336 330 324 318 318 326 341 348 345 359 64 66 49 37 32 39 150 233 266 279 305 313 291 262 250 238 230 223 218 222 225 219 217 210 188 156 110 112 132 152 141 162 199 206 205 216 218 230 252 258 224 120 239 251 235 187 193 211 183 175 231 254 265 270 267 251 268 276 279 269 255 251 257 273 283 287 280 271 264 263 271 277
344 343 339 338 339 337 331 326 319 316 322 334 341 340 356 91 77 38 19 15 19 91 194 286 292 293 291 272 259 247 229 223 221 214 216 221 213 208 206 199 190 166 140 139 147 171 203 212 202 209 209 178 185 262 273 178 191 236 244 235 213 204 204 201 213 235 257 269 273 268 245 258 273 284 283 271 265 268 275 280 280 276 269 258 248 252 257
345 344 340 337 337 336 334 331 325 319 322 329 334 341 347 253 253 355 357 356 359 32 112 339 295 288 280 269 282 277 233 213 211 211 212 219 221 213 206 208 213 200 154 117 166 187 224 247 240 257 263 179 163 205 223 205 223 251 253 248 235 217 218 224 226 232 248 259 265 267 259 264 279 296 293 281 270 265 270 275 270 267 265 257 245 242 244
347 343 339 336 335 336 336 333 329 325 323 325 337 17 41 274 288 321 336 341 347 23 110 181 271 293 301 301 58 30 330 191 196 220 222 225 235 226 212 217 228 209 186 206 219 209 230 234 225 267 304 175 162 189 199 201 257 273 266 261 243 213 224 238 233 227 243 261 282 302 288 280 286 295 290 285 272 256 255 267 268 266 265 258 248 246 249
350 344 340 337 334 334 333 331 329 323 315 312 306 261 250 270 289 304 321 333 341 19 118 92 312 297 295 304 63 83 110 127 40 353 283 225 234 236 221 230 250 236 202 186 234 253 234 202 188 232 240 168 154 193 196 191 233 256 262 268 264 223 219 237 243 243 251 258 283 303 295 289 276 255 265 283 289 278 265 273 281 281 279 273 264 259 257
349 345 341 337 333 332 329 325 322 317 309 304 292 273 268 278 290 302 321 337 342 119 133 111 298 263 260 304 29 104 133 119 12 9 346 272 105 80 264 277 313 288 240 200 209 248 236 159 151 245 255 199 156 193 222 219 233 246 257 269 273 260 247 251 261 267 269 255 210 233 270 280 280 272 271 281 291 291 284 283 290 294 289 281 275 268 261
348 346 344 340 337 331 322 316 314 315 313 308 298 291 294 298 300 308 321 332 349 109 129 130 234 262 275 335 360 61 141 110 4 354 331 338 38 117 276 326 354 277 225 201 210 262 279 182 160 221 271 261 166 232 253 240 239 245 255 265 270 274 287 294 273 261 266 265 229 221 245 267 283 292 292 288 287 291 294 291 288 290 288 278 271 266 259
348 346 343 341 338 328 317 313 317 318 314 309 310 313 312 308 304 305 309 313 52 74 301 216 206 258 302 330 320 281 137 87 359 246 244 307 291 177 155 95 278 246 217 195 205 244 235 200 178 196 237 203 186 226 243 244 245 246 249 259 268 278 291 289 280 275 275 275 267 258 259 265 276 284 287 289 289 295 301 293 271 264 272 277 273 265 252
346 345 341 337 333 324 315 314 326 334 324 318 319 313 304 299 297 293 284 253 205 205 234 274 228 223 253 302 289 252 118 74 302 224 157 261 249 165 110 130 229 248 214 161 250 250 228 185 171 206 223 202 219 228 228 236 248 250 245 252 263 265 264 272 288 305 308 302 297 292 284 276 272 274 282 290 292 293 295 292 278 255 258 270 275 270 256
347 345 339 333 330 325 316 311 338 338 325 318 316 310 299 292 289 278 257 226 213 208 186 130 257 219 186 283 282 174 117 259 265 113 257 245 209 165 115 172 228 255 321 299 244 232 215 157 185 226 232 231 240 242 231 230 247 257 261 266 266 264 267 287 326 323 313 312 313 310 305 301 295 291 292 295 298 299 297 294 289 274 267 270 274 271 265
350 346 342 343 346 345 318 321 332 331 324 318 315 310 296 282 259 231 197 141 200 209 161 152 242 230 212 263 259 175 163 245 330 110 221 232 189 118 163 208 226 236 304 280 241 189 122 216 232 236 250 252 255 256 247 240 251 261 258 258 263 272 292 330 346 314 308 315 317 317 322 325 319 316 316 311 307 306 302 295 289 281 270 267 272 276 276
359 357 351 351 353 302 290 315 323 323 320 317 316 306 278 202 93 293 276 123 134 260 176 178 233 214 193 228 257 220 165 168 319 276 241 247 255 221 217 274 276 118 296 276 260 143 122 259 251 240 259 262 264 262 234 224 243 250 248 254 273 293 305 304 292 281 275 282 290 297 302 303 301 304 310 311 309 307 305 303 299 292 280 272 275 279 279
13 10 359 341 314 304 309 315 318 319 318 318 319 341 343 334 223 254 308 80 310 258 195 183 237 236 187 202 263 271 181 165 222 231 233 248 246 153 134 261 263 126 234 267 268 108 144 257 253 236 253 264 276 284 159 206 236 248 258 280 294 294 292 293 299 303 289 275 282 289 288 279 276 279 286 293 300 302 303 305 305 302 297 290 286 283 281
18 15 352 315 307 308 311 313 314 314 318 329 339 4 343 285 273 291 55 46 276 259 210 128 359 313 322 112 175 230 240 206 164 161 212 264 280 86 162 257 274 101 244 254 257 89 118 265 253 248 257 275 314 96 185 222 246 266 302 311 296 298 313 325 324 324 323 297 286 294 297 293 288 284 284 285 284 284 290 297 301 303 303 299 294 292 289
340 330 316 308 307 310 314 317 316 315 60 50 321 291 250 261 294 327 266 230 236 253 268 113 152 243 253 189 171 207 237 21 76 94 253 280 305 101 186 283 340 285 246 253 29 61 48 250 257 260 270 345 17 355 214 225 254 296 308 299 305 329 347 343 325 321 324 312 294 300 309 311 311 313 313 306 296 288 289 292 294 298 303 303 300 298 296
320 317 320 318 316 324 339 341 80 77 56 330 271 274 271 273 288 282 264 273 304 10 291 290 299 289 278 206 200 228 235 160 105 111 193 259 289 60 43 336 299 241 251 298 24 316 235 234 252 270 332 51 360 313 282 267 306 335 320 320 344 358 352 333 314 310 314 313 305 306 313 318 320 324 326 318 305 302 306 307 304 302 303 304 302 300 299
342 346 355 349 337 14 27 15 92 99 122 235 235 231 245 258 265 257 256 273 306 304 280 289 355 348 313 272 215 249 252 209 140 132 209 242 10 77 112 254 242 237 299 321 257 249 248 238 256 312 358 343 295 301 316 336 350 358 345 342 353 355 340 328 325 324 326 330 330 329 333 336 334 333 335 335 332 324 317 314 313 312 309 306 301 298 300
2 13 39 16 323 338 62 39 321 160 213 229 226 216 226 236 237 235 233 234 290 353 332 335 102 224 273 276 345 23 294 301 8 261 228 63 54 191 217 233 237 301 306 274 253 263 269 267 311 4 343 302 292 315 339 347 350 359 354 343 340 336 331 335 342 344 340 339 340 342 345 344 341 338 335 332 331 325 313 308 310 311 309 305 299 297 300
360 14 89 30 287 262 122 181 242 225 206 213 220 227 236 238 238 244 259 298 354 330 305 279 176 232 292 295 324 347 338 58 338 271 106 75 284 247 223 113 277 234 235 249 251 256 263 275 332 4 328 301 304 324 333 332 336 355 2 341 319 313 318 322 325 329 334 337 340 342 342 339 337 334 328 324 322 319 312 306 306 305 301 297 294 295 298
347 11 99 211 253 238 200 206 217 214 220 235 232 228 233 249 260 266 284 314 274 262 273 280 296 306 301 293 260 264 262 134 203 255 159 112 240 272 7 59 244 229 218 245 251 249 245 266 292 310 314 312 317 331 341 344 342 341 339 321 295 294 303 310 319 329 333 333 334 333 331 330 329 327 323 318 316 314 311 308 305 301 296 292 292 294 294
248 244 190 212 245 236 220 222 271 264 254 266 269 254 254 301 312 289 282 290 283 280 295 319 327 315 301 278 192 231 251 210 189 260 262 120 206 269 277 226 239 234 224 239 249 255 255 257 266 283 317 325 320 323 327 323 315 315 318 310 299 301 308 310 314 317 317 318 318 317 316 319 321 318 314 312 309 309 309 309 307 303 297 292 291 291 291
242 244 223 221 254 244 226 289 333 298 257 263 293 292 287 300 294 281 279 279 267 253 251 265 285 280 274 269 219 230 248 227 173 228 250 167 200 228 228 226 244 251 243 235 241 259 262 264 290 332 344 335 326 318 310 306 305 306 304 297 294 296 299 300 304 307 308 308 308 306 307 311 312 309 307 305 302 303 306 307 306 304 300 295 290 287 285
233 241 224 218 240 247 228 310 290 274 254 251 297 299 294 289 281 277 276 269 265 290 314 306 255 245 258 286 332 274 249 231 196 214 237 227 213 219 230 233 240 246 245 219 182 240 256 279 341 341 328 322 322 316 311 311 308 303 301 300 300 301 302 303 305 307 306 304 301 299 301 303 303 301 300 298 296 297 300 302 301 301 300 298 294 287 283
233 240 210 208 228 238 233 257 266 268 265 246 237 252 287 300 286 288 303 334 8 345 322 291 242 251 267 260 250 255 257 241 162 216 238 233 205 202 226 235 239 248 263 287 289 290 304 329 337 323 318 318 314 305 303 304 303 303 304 304 303 303 303 302 302 301 300 300 298 297 296 297 298 298 298 296 296 296 297 298 298 299 299 299 298 293 287
234 247 238 218 225 231 243 255 263 271 271 258 243 241 260 262 260 269 280 290 293 284 279 272 264 269 263 244 216 229 258 254 229 232 239 238 222 220 232 241 251 274 305 302 295 302 314 312 307 308 309 307 303 302 303 302 302 302 302 301 300 299 298 297 297 297 296 295 294 293 294 297 299 299 298 296 295 295 294 295 297 298 298 298 298 298 296
Height
881 878 876 874 872 869 865 862 858 855 852 850 848 848 851 857 861 860 855 854 852 854 874 896 901 904 911 914 913 914 913 913 914 917 917 915 913 912 910 911 911 910 911 910 910 909 906 905 907 906 908 912 917 926 931 930 929 924 916 916 922 920 913 907 895 887 892 899 901 903 904 901 896 895 897 897 895 894 895 899 903 905 902 895 900 896 860
882 880 878 876 873 870 868 864 860 857 854 852 850 852 857 862 862 860 857 853 851 858 873 890 902 910 912 911 912 915 915 914 913 914 913 914 913 910 910 913 911 911 914 912 910 910 906 903 908 910 908 914 926 932 932 930 928 923 917 917 920 913 905 906 901 889 886 889 892 894 896 897 892 890 896 897 895 898 901 905 909 905 895 892 896 886 852
884 882 880 878 875 873 870 866 864 860 857 854 853 854 859 862 862 863 861 855 856 869 880 886 897 907 906 906 910 910 912 917 916 914 915 917 916 911 910 914 913 914 915 911 911 913 908 904 910 914 911 916 929 933 932 932 929 927 928 928 922 912 907 907 902 895 893 891 888 886 887 890 889 890 896 897 896 897 896 901 909 901 892 893 888 870 844
885 883 881 879 877 875 872 869 867 863 860 858 855 857 861 864 867 869 868 864 868 881 891 890 893 900 900 901 907 907 907 914 919 918 915 917 918 914 912 915 914 912 911 907 907 912 913 911 912 911 908 913 926 933 932 932 932 932 934 931 924 917 913 910 904 898 896 892 886 886 889 890 888 888 893 896 898 898 895 898 900 892 890 887 872 860 851
887 885 883 881 879 877 874 872 870 866 864 860 858 862 866 870 880 884 879 876 877 883 892 893 893 896 896 897 904 908 907 911 916 916 915 918 919 915 914 915 910 907 908 906 904 908 913 915 913 911 911 915 926 934 932 932 933 933 933 930 924 915 907 909 910 902 895 893 889 890 895 894 889 888 890 891 897 900 897 893 887 885 889 878 857 856 859
889 887 885 883 881 880 877 875 872 870 868 863 861 867 873 876 888 895 889 886 887 887 891 896 895 895 897 901 906 907 906 907 907 910 916 919 917 912 909 910 909 907 908 905 904 907 908 908 909 911 914 916 919 924 928 932 935 933 930 930 926 914 905 910 912 903 896 896 894 893 898 896 890 890 889 889 896 899 892 885 884 885 884 869 853 857 860
891 889 887 885 883 882 880 878 875 873 872 868 865 871 880 884 889 895 893 893 897 898 900 900 895 893 897 901 905 903 901 901 903 909 911 911 914 913 903 901 907 910 910 907 904 904 903 903 906 909 911 913 912 910 914 925 936 933 926 928 929 917 905 909 912 900 892 891 890 892 895 890 884 884 884 885 890 893 888 883 884 886 881 869 863 866 862
893 891 889 887 886 884 882 881 878 877 875 872 871 877 885 887 889 893 893 895 900 903 902 899 893 894 897 896 900 903 900 898 903 909 906 900 907 913 903 900 907 909 911 909 904 904 905 903 905 909 909 910 910 907 906 914 929 931 924 926 929 917 904 907 910 898 885 882 882 884 887 887 882 877 878 883 886 888 889 888 888 888 881 872 873 876 864
895 894 891 890 888 886 885 883 881 880 877 874 876 883 887 887 890 891 890 894 901 900 900 899 893 892 896 895 899 902 900 899 901 904 908 905 904 907 903 902 908 911 912 909 904 908 911 907 908 912 910 909 910 909 910 912 918 923 924 923 923 918 909 906 908 900 885 879 881 881 884 888 884 874 869 875 879 876 875 879 882 878 868 863 869 867 848
898 896 894 892 890 888 887 886 883 883 880 878 880 885 888 888 889 890 889 893 901 901 900 899 895 895 901 903 903 902 901 904 902 899 907 913 911 911 909 906 907 908 906 906 908 914 917 915 917 918 917 916 915 913 914 915 913 915 920 922 922 921 913 906 909 903 885 879 886 887 881 875 867 861 856 858 864 864 862 865 869 866 860 857 855 845 830
900 899 896 894 893 891 890 888 887 886 884 883 885 887 888 888 887 889 889 891 901 906 900 896 896 900 907 909 908 906 904 905 904 899 901 910 915 917 914 910 906 903 905 912 918 921 922 921 921 921 919 918 918 917 916 917 917 916 916 918 922 923 916 910 912 904 887 884 888 883 875 863 851 851 852 851 853 855 854 851 851 854 856 851 842 834 829
903 902 900 897 896 894 892 891 890 889 888 888 889 889 889 889 887 888 889 891 900 905 899 901 907 909 911 912 910 909 907 906 909 908 905 908 915 918 916 911 904 904 914 921 922 922 920 919 920 920 919 918 917 918 917 917 919 920 917 915 917 919 915 912 912 907 896 891 887 876 865 856 848 850 854 853 851 852 852 847 842 845 849 846 840 836 831
906 905 903 901 899 897 895 894 892 892 892 891 892 890 890 891 889 889 890 892 899 902 899 907 919 920 917 915 911 910 913 914 915 915 911 910 912 915 918 916 910 913 922 924 922 919 911 908 911 912 915 920 919 918 921 921 920 921 921 919 916 915 915 912 910 908 899 893 892 883 867 854 848 849 853 854 853 853 853 848 838 836 838 838 836 832 827
909 908 906 904 903 900 898 897 895 895 894 893 893 893 892 892 890 890 891 891 897 906 906 905 910 913 912 912 911 912 915 915 913 912 913 913 912 913 920 923 920 921 925 922 918 914 903 899 899 898 901 906 903 904 916 924 925 923 923 923 920 917 915 911 907 903 899 897 895 888 873 858 847 844 847 850 849 848 851 849 837 829 830 832 830 826 824
912 911 909 907 905 903 902 900 898 897 896 895 895 895 893 893 892 892 893 892 895 905 907 900 899 904 907 910 911 909 908 909 908 909 914 918 918 919 923 925 923 923 924 919 912 907 903 900 898 894 892 890 888 891 902 912 922 927 926 923 923 921 917 912 904 899 900 901 895 886 876 860 844 841 847 850 849 848 851 853 841 826 823 826 825 823 821
914 913 912 910 908 906 904 903 901 900 898 897 896 896 895 895 894 893 893 893 894 898 900 898 899 903 905 909 912 908 904 904 905 905 907 911 916 921 923 924 923 923 923 917 910 906 904 900 901 899 895 892 891 891 891 894 904 921 929 926 923 923 923 920 913 906 904 901 894 890 880 857 839 840 847 850 851 849 851 854 841 823 819 822 821 820 819
917 915 914 912 911 909 907 905 904 902 901 899 898 897 897 896 896 895 894 894 894 895 898 900 901 902 902 903 906 906 904 904 904 902 899 904 914 921 923 923 923 923 921 914 907 906 903 900 902 901 895 895 896 892 890 891 890 899 915 922 922 923 923 920 914 908 908 906 898 892 879 855 839 840 846 850 852 850 853 852 835 818 817 820 818 817 817
918 917 915 914 913 911 910 908 906 904 903 902 900 899 899 898 897 896 895 895 894 894 897 899 899 898 897 896 897 900 901 901 901 900 902 908 913 915 918 919 918 918 919 912 903 902 901 899 900 897 893 898 901 893 891 893 886 885 895 905 912 919 921 919 913 907 909 911 902 890 873 851 840 843 847 850 851 851 851 842 823 813 815 817 816 816 814
919 918 917 916 914 913 912 910 908 907 905 903 902 901 901 900 899 898 897 896 895 894 895 897 897 895 896 896 896 900 901 899 898 898 899 902 907 911 915 915 912 913 917 913 903 901 901 898 898 898 895 896 899 894 890 888 884 883 887 889 893 901 909 915 913 906 906 908 902 890 868 845 840 847 850 850 850 844 836 823 813 812 814 813 813 814 811
920 919 918 917 916 914 913 912 910 908 907 905 904 903 903 902 901 900 899 899 898 894 893 895 896 894 894 894 894 895 897 897 898 897 894 895 904 910 906 903 905 910 913 909 901 899 900 896 897 900 896 893 893 893 891 886 881 879 879 878 880 883 888 894 896 895 897 901 898 881 855 837 839 845 847 848 841 826 816 813 812 811 811 810 810 810 808
920 919 918 918 917 915 914 913 911 910 908 907 905 904 904 904 903 902 901 901 900 895 892 892 893 893 893 892 891 891 892 892 893 893 893 896 903 901 893 892 899 901 900 899 897 896 898 897 897 898 896 894 893 891 888 885 880 879 880 878 879 880 877 876 877 878 880 882 875 852 830 829 838 837 832 831 825 814 812 814 812 808 807 808 807 804 804
920 920 919 918 917 917 915 914 913 911 909 908 906 905 904 904 903 902 901 900 899 895 892 892 891 891 891 890 890 890 890 890 890 890 891 895 899 898 894 893 896 894 894 895 894 893 895 896 896 895 893 892 891 889 888 885 879 879 882 878 871 869 867 864 864 864 863 860 850 832 821 828 836 830 821 818 815 812 814 815 811 808 805 805 804 801 800
920 920 920 919 918 918 916 915 914 912 910 909 907 906 905 903 902 902 900 899 899 896 892 892 891 889 888 888 888 888 889 889 888 888 888 890 894 897 896 893 892 892 892 891 889 889 891 891 892 892 890 888 886 885 886 886 880 875 875 872 864 862 865 864 860 858 856 848 837 830 827 825 826 823 819 816 814 813 813 812 810 806 802 801 801 799 797
920 919 919 919 918 918 917 916 915 913 912 910 908 907 906 904 902 901 899 899 899 896 892 890 889 887 885 886 886 886 887 887 887 887 888 887 887 890 891 890 890 890 890 890 889 890 890 891 894 895 890 885 883 882 881 881 877 872 871 868 863 862 865 864 858 858 857 843 829 826 826 822 820 818 814 813 813 810 808 808 805 801 798 798 798 796 795
920 919 918 918 918 917 917 916 915 914 913 911 909 907 906 905 904 903 901 901 903 902 895 889 887 886 885 885 885 885 885 885 885 885 886 886 885 885 885 885 886 886 887 888 889 889 889 889 892 893 889 883 880 879 877 874 872 872 872 867 861 860 864 862 857 856 853 840 827 823 822 822 820 815 811 810 809 805 803 803 800 797 796 795 795 795 795
920 919 918 917 917 917 916 916 915 915 913 912 910 908 906 905 905 904 904 904 905 904 900 892 886 886 887 886 885 884 883 884 884 884 884 885 885 885 884 885 886 886 886 888 889 889 888 888 889 889 885 881 878 875 872 870 869 871 869 862 858 860 861 858 854 852 848 839 827 821 820 818 813 808 807 807 805 801 799 797 796 796 795 793 793 793 793
920 919 918 917 916 916 916 915 915 914 914 912 911 909 907 907 905 904 906 906 903 901 901 896 890 888 888 886 884 883 883 883 882 882 883 883 884 885 885 885 885 886 887 888 888 889 889 888 887 884 881 881 879 875 871 870 869 870 865 858 857 857 854 852 854 852 842 830 819 814 817 814 803 798 801 802 800 799 797 794 794 795 793 791 791 790 789
919 918 918 917 916 916 915 915 914 914 913 912 911 910 908 907 905 904 906 907 906 906 907 904 896 890 886 883 882 882 882 882 882 882 882 882 883 883 884 885 885 886 887 886 886 888 888 884 882 880 878 877 875 872 871 872 872 868 859 851 848 846 841 841 845 840 827 816 808 810 816 812 799 794 797 797 797 798 796 792 792 791 789 790 790 788 787
918 918 917 917 917 916 915 914 913 913 912 912 911 909 908 907 906 905 904 906 907 908 909 906 897 889 884 881 881 881 881 881 882 881 881 881 882 882 883 884 884 885 885 885 884 884 882 879 876 874 872 870 868 867 868 868 864 855 844 836 834 834 831 829 829 825 819 810 804 807 811 805 795 793 795 795 796 797 793 790 788 787 786 786 786 785 785
918 918 917 916 916 916 915 914 913 912 911 911 910 909 908 906 906 905 904 905 905 906 907 906 898 889 883 882 882 881 881 882 882 882 882 882 882 882 883 883 884 884 885 885 883 881 879 876 872 869 868 867 866 865 864 863 857 843 828 822 825 827 825 822 820 819 815 806 802 805 807 801 797 797 795 793 793 793 790 786 784 783 782 782 782 782 781
918 917 917 916 916 915 915 914 913 911 911 910 909 909 909 906 905 905 905 905 904 904 906 906 900 890 883 882 882 883 883 885 884 884 884 883 883 884 884 884 884 884 884 883 882 881 878 872 867 867 868 868 866 864 861 861 855 837 818 811 815 819 818 815 814 814 811 805 804 807 804 799 799 799 792 786 786 788 787 784 781 781 780 778 778 778 777
917 917 916 915 915 915 914 913 912 911 911 909 909 909 908 906 906 906 905 905 904 903 904 904 900 891 882 880 882 885 886 886 887 887 886 885 885 886 886 886 886 885 884 884 883 879 875 871 867 866 867 867 866 864 862 859 850 831 811 804 808 810 810 809 810 811 810 809 811 810 802 794 794 794 788 782 781 784 784 782 780 780 778 776 776 775 773
917 916 916 915 915 914 914 913 912 911 910 909 908 907 906 906 905 905 905 905 904 903 903 903 900 893 884 880 882 886 887 887 888 889 887 886 887 887 886 887 887 885 884 884 881 876 872 870 867 866 866 866 864 862 858 850 837 820 808 804 804 804 806 809 810 809 807 806 810 810 801 791 787 787 786 783 781 781 782 781 779 778 777 775 773 772 770
917 916 915 914 914 914 913 912 912 910 909 908 907 906 905 905 904 904 904 904 903 903 903 903 899 894 887 880 880 885 888 887 888 888 887 887 888 888 886 887 888 886 881 880 878 874 870 869 868 867 867 867 866 863 851 835 822 815 811 807 802 801 805 808 807 804 802 802 804 804 800 793 789 786 784 782 779 778 778 778 778 776 774 772 770 768 767
916 916 915 914 914 913 912 912 911 910 909 907 906 906 905 904 903 903 903 903 903 902 901 900 897 894 890 884 881 884 889 889 888 888 888 887 887 887 886 886 887 883 877 875 874 871 868 867 866 864 864 866 865 855 837 820 812 812 812 807 804 804 806 803 797 795 797 800 800 798 797 795 792 787 782 780 778 776 776 776 775 775 773 769 765 764 763
916 915 914 914 913 912 911 911 911 910 909 908 907 906 905 903 902 901 901 901 902 901 899 897 895 894 893 888 883 885 888 888 887 888 888 886 885 886 886 885 883 878 874 875 874 869 866 864 861 860 863 860 845 828 817 811 807 806 807 806 805 803 801 799 797 795 795 795 795 794 793 791 790 787 783 780 778 776 775 773 773 773 771 766 762 760 759
915 915 914 913 912 911 911 911 911 911 910 908 906 905 903 901 900 900 900 900 900 899 900 899 896 894 893 889 886 886 887 884 883 884 885 883 883 883 885 884 879 873 872 872 868 864 863 862 858 856 853 839 816 803 805 807 804 803 805 805 801 797 797 799 801 799 795 791 790 789 788 787 786 785 783 780 777 776 775 772 770 770 769 765 760 758 755
915 914 914 913 913 912 912 911 911 911 909 908 906 904 901 900 901 900 899 900 900 899 900 900 897 894 892 890 887 884 883 881 881 881 880 880 880 880 882 881 875 870 869 864 858 857 861 861 859 855 841 819 801 797 802 805 805 805 805 800 795 793 796 799 801 801 799 794 790 788 788 787 784 782 781 779 777 775 773 771 769 769 767 764 760 757 755
914 914 914 914 914 914 913 912 911 910 909 907 907 904 901 901 900 897 896 899 901 899 899 900 896 890 888 886 884 880 879 881 881 879 878 878 875 874 876 874 869 869 868 857 850 854 857 853 854 852 832 807 794 795 798 802 804 802 798 796 795 795 797 798 799 800 800 798 794 792 792 791 788 785 783 781 778 774 771 769 767 766 764 762 759 757 755
914 914 915 916 915 914 913 912 911 910 909 908 907 906 904 902 898 894 894 896 896 895 895 894 891 887 885 884 883 882 881 881 881 881 880 877 872 873 874 870 865 867 865 854 850 855 853 846 846 841 818 793 787 793 797 799 799 796 795 797 797 796 797 797 797 797 798 797 795 793 792 791 790 787 785 783 780 776 771 767 764 762 761 760 758 756 754
915 915 916 917 916 914 912 911 910 910 910 909 909 908 906 902 898 895 895 894 891 888 887 887 886 885 884 883 883 883 882 880 881 883 881 875 872 873 873 867 864 865 861 852 851 855 853 846 840 826 801 786 789 795 796 795 796 795 797 798 797 796 796 796 795 795 795 794 793 791 789 787 786 785 783 781 779 776 772 767 763 761 760 759 756 753 751
916 916 916 916 915 913 912 911 911 911 911 911 911 910 906 902 899 897 894 891 887 884 883 884 884 883 882 882 882 881 880 880 881 882 880 876 874 874 872 870 870 867 859 853 854 856 854 846 831 808 792 791 796 797 794 795 796 798 799 798 796 796 796 796 795 794 793 792 791 790 787 784 783 781 780 778 776 774 770 767 763 760 758 756 754 751 748
917 916 916 916 915 914 913 912 911 912 913 914 914 912 907 902 899 895 891 888 887 885 884 884 883 882 882 882 881 880 880 880 879 879 878 877 875 875 876 875 872 866 860 857 857 854 847 835 816 800 797 800 800 797 796 798 799 799 800 798 796 796 796 795 795 794 791 791 790 787 784 781 779 778 778 777 774 770 766 764 762 759 755 752 750 747 744
917 916 916 916 916 915 914 912 911 913 915 915 913 911 908 903 898 893 889 888 887 886 885 884 884 883 882 881 881 880 880 879 878 878 877 876 876 879 878 873 868 864 862 858 853 847 838 823 809 802 803 802 798 796 799 800 799 799 799 797 796 796 795 794 793 791 789 788 787 784 781 778 776 774 773 772 770 768 764 760 759 757 753 750 747 742 739
918 917 918 919 919 917 915 913 911 912 913 911 908 906 905 901 897 893 891 889 888 887 887 887 886 884 883 882 882 881 879 879 879 878 875 874 876 876 872 867 866 866 861 855 848 841 829 815 806 804 803 799 797 799 802 802 801 801 799 798 797 796 794 792 791 790 788 786 784 781 779 777 775 773 771 767 766 766 763 759 756 754 751 748 744 738 736
920 919 920 922 921 918 915 914 913 911 908 906 904 903 901 898 895 893 892 891 890 888 888 888 887 885 884 883 883 882 882 882 880 877 875 878 878 872 866 866 866 862 857 851 843 830 816 808 806 805 803 802 802 803 802 802 802 801 799 798 797 796 794 793 791 789 786 784 781 779 778 777 775 774 771 766 763 761 759 756 754 751 749 746 741 736 733
921 920 921 922 921 917 913 910 908 905 904 902 901 900 899 898 896 895 894 893 892 890 889 889 887 886 884 883 882 882 881 881 879 875 874 876 874 868 866 868 865 857 850 841 828 814 809 809 808 805 804 805 805 803 801 801 801 799 798 797 796 795 793 791 789 786 784 782 780 779 778 776 774 772 769 765 760 756 753 751 750 748 746 743 738 733 730
921 920 921 920 917 912 908 905 902 901 900 900 898 898 899 899 897 895 895 894 893 891 890 888 887 886 884 883 882 880 879 880 880 875 871 872 871 867 866 866 862 853 840 825 811 804 806 807 805 803 804 806 804 803 802 801 799 798 797 795 794 792 790 788 786 785 783 782 780 778 776 774 772 770 767 763 758 753 749 747 745 743 741 738 734 730 727
922 920 919 917 912 906 903 903 903 901 899 898 897 897 898 898 897 896 894 893 892 891 889 887 887 887 885 882 882 881 879 878 877 873 870 871 870 863 858 856 851 837 820 808 804 804 805 804 803 804 805 804 803 802 801 799 798 797 796 793 791 790 788 786 784 782 781 779 778 775 773 770 768 766 763 760 755 749 744 742 740 737 735 733 730 726 722
920 917 914 912 909 904 902 903 902 898 896 897 897 897 897 897 896 895 893 892 890 889 888 887 887 886 883 882 883 882 878 874 871 869 867 865 861 856 851 846 833 815 802 800 803 805 805 805 806 805 803 802 802 801 799 797 796 795 793 791 790 788 785 783 781 778 777 775 774 771 769 766 764 761 759 755 750 745 741 737 734 731 728 726 724 722 718
917 913 908 906 904 902 901 900 897 895 895 897 898 897 898 898 896 894 893 893 891 891 890 889 887 885 885 885 884 881 876 871 868 866 860 853 848 846 840 826 809 798 798 803 805 805 805 806 806 804 802 801 800 798 797 796 794 791 790 789 787 785 782 780 777 775 772 770 768 766 764 761 759 757 754 750 746 742 738 733 728 725 723 721 718 717 715
911 907 904 901 900 900 899 897 894 893 894 895 895 895 896 896 894 893 893 893 892 892 891 889 887 886 885 882 878 875 872 869 865 860 851 839 830 824 816 804 797 800 805 806 805 804 805 805 804 803 801 799 797 795 795 793 791 788 786 785 783 781 779 776 773 771 768 765 762 759 757 755 753 752 749 746 743 740 735 729 723 720 717 715 712 711 710